Ardmore, OK

7:12 PM CDT on June 26, 2017 (GMT -0500)
Ardmore Municipal

Weather History for KADM - August, 2014

Change the Weather History Date:

Friday, August 29, 2014

  Actual Average Record
Temperature  
Mean Temperature 77 °F -  
Max Temperature 86 °F 90 °F 101 °F (2013)
Min Temperature 68 °F 69 °F 60 °F (2012)
Cooling Degree Days 12    
Growing Degree Days 27 (Base 50)    
Moisture  
Dew Point 69 °F    
Average Humidity 86    
Maximum Humidity 98    
Minimum Humidity 58    
Precipitation  
Precipitation 0.50 in - - ()
Sea Level Pressure  
Sea Level Pressure 29.91 in    
Wind  
Wind Speed 7 mph (SSW)    
Max Wind Speed 16 mph    
Max Gust Speed 28 mph    
Visibility 10 miles    
Events Rain , Thunderstorm    
Averages and records for this station are not official NWS values.
T = Trace of Precipitation, MM = Missing Value Source: NWS Daily Summary

Daily Weather History Graph

Daily Weather History Graph

Search for Another Location

Airport or City:

Trip Planner

Search our weather history database for the weather conditions in past years. The results will help you decide how hot, cold, wet, or windy it might be!

Date:

Astronomy

Aug. 29, 2014 Rise Set
Actual Time 6:59 AM CDT 7:58 PM CDT
Civil Twilight 6:33 AM CDT 8:23 PM CDT
Nautical Twilight 6:03 AM CDT 8:54 PM CDT
Astronomical Twilight 5:31 AM CDT 9:25 PM CDT
Moon 10:38 AM CDT (8/29) 10:09 PM CDT (8/29)
Length of Visible Light 13h 50m
Length of Day
12h 58m
Waxing Crescent, 15% of the Moon is Illuminated
Aug 29
Waxing Crescent
Sep 2
First Quarter
Sep 8
Full
Sep 15
Last Quarter
Sep 24
New

Hourly Weather History & Observations

Time (CDT) Temp. Heat Index Dew Point Humidity Pressure Visibility Wind Dir Wind Speed Gust Speed Precip Events Conditions
12:15 AM 74.8 °F - 67.1 °F 77% 29.97 in 10.0 mi WNW 16.1 mph 27.6 mph N/A   Overcast
12:35 AM 72.0 °F - 67.1 °F 85% 29.97 in 10.0 mi WNW 16.1 mph 24.2 mph N/A Rain Rain
12:55 AM 69.4 °F - 66.7 °F 91% 29.97 in 5.0 mi WNW 15.0 mph 19.6 mph 0.02 in Rain Heavy Rain
1:15 AM 69.3 °F - 66.6 °F 91% 29.95 in 5.0 mi North 5.8 mph - 0.07 in Rain Heavy Rain
1:35 AM 69.3 °F - 66.7 °F 92% 29.92 in 7.0 mi North 6.9 mph - 0.17 in Rain Light Rain
1:55 AM 69.4 °F - 66.7 °F 91% 29.90 in 10.0 mi North 3.5 mph - 0.23 in   Overcast
2:15 AM 69.1 °F - 67.5 °F 95% 29.88 in 10.0 mi Calm Calm - N/A   Overcast
2:35 AM 68.9 °F - 67.6 °F 96% 29.86 in 10.0 mi SSE 5.8 mph - N/A Thunderstorm Overcast
2:55 AM 69.1 °F - 68.0 °F 96% 29.90 in 10.0 mi SSW 6.9 mph - N/A Rain Light Rain
3:15 AM 69.8 °F - 67.8 °F 93% 29.92 in 10.0 mi SSW 6.9 mph - N/A Rain Light Rain
3:35 AM 69.4 °F - 67.5 °F 93% 29.93 in 10.0 mi SW 6.9 mph - 0.01 in Rain Rain
3:55 AM 68.9 °F - 67.5 °F 95% 29.92 in 10.0 mi West 4.6 mph - 0.03 in Rain Rain
4:15 AM 68.7 °F - 67.5 °F 96% 29.93 in 10.0 mi SE 3.5 mph - 0.02 in Rain Rain
4:35 AM 68.2 °F - 67.3 °F 97% 29.93 in 7.0 mi SSE 4.6 mph - 0.05 in Rain Rain
4:55 AM 68.0 °F - 67.1 °F 97% 29.92 in 10.0 mi SSE 4.6 mph - 0.08 in Rain Rain
5:15 AM 68.0 °F - 67.1 °F 97% 29.91 in 10.0 mi SSE 3.5 mph - 0.03 in Rain , Thunderstorm Light Thunderstorms and Rain
5:35 AM 68.0 °F - 67.3 °F 98% 29.92 in 7.0 mi South 4.6 mph - 0.06 in Rain Rain
5:55 AM 68.0 °F - 67.1 °F 97% 29.92 in 10.0 mi SSW 3.5 mph - 0.09 in Rain Rain
6:15 AM 68.2 °F - 67.3 °F 97% 29.91 in 10.0 mi SE 4.6 mph - 0.02 in Rain Light Rain
6:35 AM - - - N/A% 29.91 in 7.0 mi ESE 8.1 mph - 0.05 in Rain Rain
6:55 AM - - - N/A% 29.91 in 10.0 mi East 4.6 mph - N/A Rain Light Rain
7:55 AM - - - N/A% 29.90 in 10.0 mi WNW 5.8 mph - N/A   Clear
8:55 AM - - - N/A% 29.92 in 10.0 mi NNW 5.8 mph - N/A   Clear
10:55 AM 78.8 °F - 71.6 °F 78% 29.94 in 10.0 mi Calm Calm - N/A   Scattered Clouds
11:55 AM 80.6 °F 84.6 °F 71.6 °F 74% 29.96 in 10.0 mi ESE 4.6 mph - N/A   Mostly Cloudy
12:55 PM 82.4 °F 87.2 °F 71.6 °F 70% 29.94 in 10.0 mi SW 3.5 mph - N/A   Scattered Clouds
1:55 PM 86.0 °F 91.8 °F 71.6 °F 62% 29.92 in 10.0 mi South 3.5 mph - N/A   Scattered Clouds
2:55 PM 84.2 °F 88.4 °F 69.8 °F 62% 29.89 in 10.0 mi WSW 6.9 mph - N/A   Scattered Clouds
3:55 PM 84.2 °F 88.4 °F 69.8 °F 62% 29.88 in 10.0 mi West 9.2 mph - N/A   Clear
4:55 PM 84.2 °F 88.4 °F 69.8 °F 62% 29.87 in 10.0 mi WSW 5.8 mph - N/A   Clear
5:55 PM 86.0 °F 90.4 °F 69.8 °F 58% 29.87 in 10.0 mi SSW 4.6 mph - N/A   Clear
6:55 PM 84.2 °F 88.4 °F 69.8 °F 62% 29.87 in 10.0 mi Calm Calm - N/A   Clear
7:55 PM 82.4 °F 87.2 °F 71.6 °F 70% 29.88 in 10.0 mi Calm Calm - N/A   Haze
8:55 PM 75.2 °F - 71.6 °F 89% 29.89 in 10.0 mi Calm Calm - N/A   Haze
9:55 PM 75.2 °F - 73.4 °F 94% 29.90 in 10.0 mi Calm Calm - N/A   Clear
10:15 PM 73.8 °F - 71.8 °F 93% 29.90 in 10.0 mi Calm Calm - N/A   Clear
10:35 PM 73.2 °F - 71.8 °F 95% 29.91 in 10.0 mi Calm Calm - N/A   Clear
10:55 PM 73.4 °F - 71.6 °F 94% 29.91 in 10.0 mi Calm Calm - N/A   Clear
11:15 PM 72.7 °F - 71.8 °F 97% 29.92 in 10.0 mi Calm Calm - N/A   Clear
11:35 PM 72.0 °F - 71.1 °F 97% 29.92 in 10.0 mi NNW 4.6 mph - N/A   Clear
11:55 PM 71.8 °F - 70.9 °F 97% 29.92 in 10.0 mi Calm Calm - N/A   Clear